STARLINK-35138

Last updated on Tue Sep 16 2025 00:02:07 GMT+0000 (Coordinated Universal Time)

1 65420U 25192S 25258.58341435 -.01479359 00000+0 -15593-1 0 9994 2 65420 53.1596 338.0784 0001164 67.3257 181.5396 15.66413330 3629
UTC large
Height (km)
Speed (km/s)
/
Latitude / Longitude
Inclination (degrees)
Orbital Period (minutes)
Azimuth
Elevation
Range (km)
Doppler Factor

Next 0 passes for location: London (51.5072 / 0.1276)

Sorry there are no passes over London.